Terminal Aerodrome Forecast
Issued by NWS Shreveport, LA

Home | Current Version | Previous Version | Text Only | Print | Product List | Glossary On
Versions: 1 2 3 4 5 6 7 8 9 10 11 12 13 14 15 16 17 18 19 20 21 22
000
FTUS44 KSHV 291308 AAA
TAFTYR
TAF AMD
KTYR 291308Z 2913/3012 16010KT P6SM VCTS OVC020CB
     FM291800 18015G25KT P6SM VCTS BKN040CB
     FM300000 16011KT 4SM -TSRA BR OVC020CB
     FM300600 18010KT 6SM -TSRA OVC050CB
     FM300900 17010KT 5SM -TSRA OVC015CB=

USA.gov is the U.S. government's official web portal to all federal, state and local government web resources and services.